Jackson, KY

6:33 PM EST on November 11, 2019 (GMT -0500)
Carroll

Weather History for KJKL - September, 2019

Change the Weather History Date:

Saturday, September 21, 2019

  Actual Average Record
Temperature  
Mean Temperature 78 °F 66 °F  
Max Temperature 89 °F 76 °F 91 °F (2010)
Min Temperature 66 °F 56 °F 39 °F (2006)
Degree Days  
Heating Degree Days 0 2  
Month to date heating degree days 0 18  
Since 1 July heating degree days 0 20  
Cooling Degree Days 13 4  
Month to date cooling degree days 260 119  
Year to date cooling degree days 1397 1097  
Growing Degree Days 28 (Base 50)    
Moisture  
Dew Point 60 °F    
Average Humidity 59    
Maximum Humidity 90    
Minimum Humidity 36    
Precipitation  
Precipitation 0.00 in 0.13 in 1.79 in (1998)
Month to date precipitation 0.00 2.40  
Year to date precipitation 39.46 35.95  
Snow  
Snow 0.00 in 0.00 in - ()
Month to date snowfall 0.0 0.0  
Since 1 July snowfall 0.0 0.0  
Since 1 September snowfall 0.0 0.0  
Snow Depth 0.00 in    
Sea Level Pressure  
Sea Level Pressure 30.22 in    
Wind  
Wind Speed 1 mph (SW)    
Max Wind Speed 8 mph    
Max Gust Speed 14 mph    
Visibility 10 miles    
Events      
T = Trace of Precipitation, MM = Missing Value Source: NWS Daily Summary

Daily Weather History Graph

Daily Weather History Graph

Search for Another Location

Airport or City:

Astronomy

Sep. 21, 2019 Rise Set
Actual Time 7:20 AM EDT 7:32 PM EDT
Civil Twilight 6:53 AM EDT 7:58 PM EDT
Nautical Twilight 6:23 AM EDT 8:28 PM EDT
Astronomical Twilight 5:52 AM EDT 8:59 PM EDT
Moon No Moon Rise 2:17 PM EDT (9/21)
Length of Visible Light 13h 04m
Length of Day
12h 12m
Waning Gibbous, 55% of the Moon is Illuminated
Sep 21
Waning Gibbous
Sep 21
Last Quarter
Sep 28
New
Oct 5
First Quarter
Oct 13
Full

Hourly Weather History & Observations

Time (EDT) Temp. Heat Index Dew Point Humidity Pressure Visibility Wind Dir Wind Speed Gust Speed Precip Events Conditions
12:53 AM 72.0 °F - 63.0 °F 73% 30.21 in 10.0 mi SW 3.5 mph - N/A   Clear
1:53 AM 71.1 °F - 63.0 °F 75% 30.22 in 10.0 mi Calm Calm - N/A   Clear
2:53 AM 70.0 °F - 63.0 °F 78% 30.21 in 10.0 mi Calm Calm - N/A   Clear
4:53 AM 68.0 °F - 63.0 °F 84% 30.22 in 10.0 mi Calm Calm - N/A   Clear
5:53 AM 66.0 °F - 63.0 °F 90% 30.24 in 10.0 mi Calm Calm - N/A   Clear
6:53 AM 66.0 °F - 63.0 °F 90% 30.25 in 10.0 mi Variable 4.6 mph - N/A   Clear
7:53 AM 66.0 °F - 62.1 °F 87% 30.27 in 10.0 mi SW 3.5 mph - N/A   Clear
8:53 AM 69.1 °F - 63.0 °F 81% 30.29 in 10.0 mi SSW 3.5 mph - N/A   Clear
9:53 AM 73.0 °F - 62.1 °F 68% 30.28 in 10.0 mi Variable 3.5 mph - N/A   Clear
10:53 AM 79.0 °F - 62.1 °F 56% 30.29 in 10.0 mi Variable 3.5 mph - N/A   Clear
11:53 AM 81.0 °F 81.6 °F 60.1 °F 49% 30.28 in 10.0 mi Variable 4.6 mph - N/A   Clear
12:53 PM 84.9 °F 84.8 °F 60.1 °F 43% 30.26 in 10.0 mi Calm Calm - N/A   Clear
1:53 PM 84.9 °F 84.8 °F 60.1 °F 43% 30.23 in 10.0 mi Calm Calm - N/A   Partly Cloudy
2:53 PM 89.1 °F 88.8 °F 60.1 °F 38% 30.21 in 10.0 mi North - - N/A   Mostly Cloudy
3:53 PM 84.9 °F 84.2 °F 57.9 °F 40% 30.19 in 10.0 mi Variable 3.5 mph - N/A   Mostly Cloudy
4:53 PM 87.1 °F 85.9 °F 57.0 °F 36% 30.17 in 10.0 mi Calm Calm - N/A   Clear
5:53 PM 87.1 °F 85.9 °F 57.0 °F 36% 30.15 in 10.0 mi Calm Calm - N/A   Clear
6:53 PM 84.9 °F 83.9 °F 57.0 °F 38% 30.15 in 10.0 mi Calm Calm - N/A   Clear
7:53 PM 82.0 °F 82.0 °F 57.9 °F 44% 30.16 in 10.0 mi Calm Calm - N/A   Clear
8:53 PM 81.0 °F 81.0 °F 57.0 °F 44% 30.17 in 10.0 mi NW 3.5 mph - N/A   Clear
9:53 PM 78.1 °F - 57.9 °F 50% 30.18 in 10.0 mi Calm Calm - N/A   Scattered Clouds
10:53 PM 75.9 °F - 60.1 °F 58% 30.18 in 10.0 mi Calm Calm - N/A   Mostly Cloudy
11:53 PM 75.0 °F - 59.0 °F 57% 30.18 in 10.0 mi Calm Calm - N/A   Clear